Flag for Germany

Past Weather in Göppingen, Baden-Württemberg, Germany — Yesterday and Last 2 Weeks

Now
64 °F

Passing clouds.


Feels Like: 64 °F
Forecast: 71 / 58 °F
Wind: 3 mph from Southwest

Location: Stuttgart-Echterdingen
Current Time: Sep 23, 2020 at 1:00:21 pm
Latest Report: Sep 23, 2020 at 12:20 pm
Visibility: N/A
Pressure29.83 "Hg
Humidity: 78%
Dew Point: 57 °F
Location of GöppingenLocation

Past Weather in Göppingen — Graph

°F

Göppingen Temperature Yesterday

Maximum temperature yesterday: 81 °F (at 2:50 pm)
Minimum temperature yesterday: 55 °F (at 5:50 am)
Average temperature yesterday: 66 °F

High & Low Weather Summary for the Past Weeks

 TemperatureHumidityPressure
High88 °F (Sep 15, 3:20 pm)100% (Sep 9, 5:20 am)30.36 "Hg (Sep 9, 5:20 am)
Low45 °F (Sep 19, 5:50 am)32% (Sep 8, 5:20 pm)29.80 "Hg (Sep 22, 5:50 pm)
Average65 °F69%30.12 "Hg
* Reported Sep 8 11:20 am — Sep 23 11:50 am, Göppingen. Weather by CustomWeather, © 2020

Note: Actual official high and low records may vary slightly from our data, if they occured in-between our weather recording intervals... More about our weather records

Göppingen Weather History for the Previous 24 Hours

Scroll right to see more
 ConditionsComfort  
Time TempWeatherWind HumidityBarometerVisibility
11:50 am
Wed, Sep 23
64 °FPassing clouds.3 mph78%29.83 "HgN/A
11:20 am64 °FLight rain. Passing clouds.5 mph78%29.83 "HgN/A
10:50 am64 °FPassing clouds.5 mph78%29.83 "HgN/A
10:20 am64 °FPassing clouds.5 mph78%29.83 "HgN/A
9:50 am63 °FPassing clouds.3 mph83%29.83 "HgN/A
9:20 am63 °FPassing clouds.3 mph83%29.80 "HgN/A
8:50 am63 °FPassing clouds.3 mph83%29.80 "HgN/A
8:20 am61 °FPassing clouds.2 mph88%29.80 "HgN/A
7:50 am61 °FPassing clouds.3 mph88%29.80 "HgN/A
7:20 am61 °FPassing clouds.3 mph88%29.80 "HgN/A
6:50 am61 °FPassing clouds.2 mph83%29.80 "HgN/A
6:20 am61 °FPassing clouds.2 mph83%29.80 "HgN/A
5:50 am61 °FPassing clouds.3 mph83%29.80 "HgN/A
5:20 am61 °FPassing clouds.5 mph83%29.80 "HgN/A
4:50 am61 °FPassing clouds.1 mph83%29.80 "HgN/A
4:20 am63 °FPassing clouds.1 mph77%29.80 "HgN/A
3:50 am63 °FPassing clouds.3 mph77%29.80 "HgN/A
3:20 am61 °FPassing clouds.5 mph83%29.80 "HgN/A
2:20 am61 °FPassing clouds.2 mph83%29.80 "HgN/A
1:20 am61 °FClear.2 mph77%29.80 "Hg10 mi
12:50 am63 °FPassing clouds.5 mph77%29.80 "HgN/A
12:20 am64 °FPassing clouds.3 mph68%29.80 "HgN/A
11:50 pm
Tue, Sep 22
64 °FClear.2 mph68%29.80 "Hg10 mi
11:20 pm64 °FClear.1 mph73%29.80 "Hg10 mi
10:50 pm64 °FClear.2 mph73%29.80 "Hg10 mi
10:20 pm64 °FPassing clouds.3 mph68%29.80 "HgN/A
9:50 pm64 °FPassing clouds.5 mph73%29.83 "HgN/A
9:20 pm64 °FPassing clouds.3 mph68%29.83 "HgN/A
8:20 pm66 °FPassing clouds.1 mph64%29.80 "HgN/A
7:50 pm68 °FPassing clouds.3 mph56%29.80 "HgN/A
7:20 pm70 °FPassing clouds.2 mph57%29.80 "HgN/A
6:50 pm72 °FPassing clouds.2 mph50%29.80 "HgN/A
6:20 pm73 °FPassing clouds.2 mph47%29.80 "HgN/A
5:50 pm75 °FPassing clouds.5 mph44%29.80 "HgN/A
5:20 pm79 °FPassing clouds.5 mph39%29.83 "HgN/A
4:50 pm79 °FPassing clouds.5 mph39%29.83 "HgN/A
4:20 pm79 °FPassing clouds.2 mph37%29.83 "HgN/A
3:50 pm79 °FPassing clouds.5 mph39%29.86 "HgN/A
3:20 pm81 °FPassing clouds.5 mph37%29.86 "HgN/A
2:50 pm81 °FPassing clouds.5 mph37%29.86 "HgN/A
2:20 pm79 °FPassing clouds.5 mph37%29.89 "HgN/A
1:50 pm79 °FPassing clouds.3 mph34%29.89 "HgN/A
1:20 pm77 °FPassing clouds.3 mph51%29.89 "HgN/A
Weather by CustomWeather, © 2020

See weather overview